This is the latest recevied weather packets stored in our database for station/object K4QXN-13. If no packets are shown the sender has not sent any weather packets the latest 10 day(s).
| Time | Temp. | Humidity | Pressure | Rain* | Wind** | Luminosity | Snow |
|---|---|---|---|---|---|---|---|
| 1788555519 | 38.33° C | 44% | 1014.2 hPa | 0 mm | - | - | - |
| 1788555217 | 37.78° C | 45% | 1014.2 hPa | 0 mm | - | - | - |
| 1788554915 | 37.22° C | 46% | 1014.2 hPa | 0 mm | - | - | - |
| 1788554614 | 36.67° C | 46% | 1014.2 hPa | 0 mm | - | - | - |
| 1788554312 | 36.67° C | 47% | 1014.5 hPa | 0 mm | - | - | - |
| 1788554011 | 37.22° C | 46% | 1014.5 hPa | 0 mm | - | - | - |
| 1788553709 | 37.22° C | 47% | 1014.5 hPa | 0 mm | - | - | - |
| 1788553408 | 37.78° C | 48% | 1014.5 hPa | 0 mm | - | - | - |
| 1788553106 | 37.22° C | 49% | 1014.5 hPa | 0 mm | - | - | - |
| 1788552804 | 35.56° C | 52% | 1014.5 hPa | 0 mm | - | - | - |
| 1788552503 | 35.56° C | 52% | 1014.5 hPa | 0 mm | - | - | - |
| 1788552201 | 36.11° C | 50% | 1014.5 hPa | 0 mm | - | - | - |
| 1788551899 | 37.22° C | 51% | 1014.9 hPa | 0 mm | - | - | - |
| 1788551598 | 35.56° C | 52% | 1014.9 hPa | 0 mm | - | - | - |
| 1788551324 | 35.56° C | 54% | 1014.9 hPa | 0 mm | - | - | - |
| 1788550994 | 34.44° C | 54% | 1015.2 hPa | 0 mm | - | - | - |
| 1788550693 | 35° C | 53% | 1015.2 hPa | 0 mm | - | - | - |
| 1788550391 | 35.56° C | 51% | 1015.5 hPa | 0 mm | - | - | - |
| 1788550089 | 36.11° C | 53% | 1015.5 hPa | 0 mm | - | - | - |
| 1788549788 | 36.11° C | 54% | 1015.2 hPa | 0 mm | - | - | - |
| 1788549486 | 35.56° C | 53% | 1015.5 hPa | 0 mm | - | - | - |
| 1788549185 | 36.11° C | 52% | 1015.5 hPa | 0 mm | - | - | - |
| 1788548882 | 36.11° C | 50% | 1015.5 hPa | 0 mm | - | - | - |
| 1788548581 | 37.22° C | 49% | 1015.9 hPa | 0 mm | - | - | - |
| 1788548279 | 37.78° C | 49% | 1015.9 hPa | 0 mm | - | - | - |
* Rain latest hour (hover to see other rain measurements)
** Current wind speed in m/s (hover to see current wind gust speed)